Regional Weather Roundup
Issued by NWS Goodland, KS

Home | Current Version | Previous Version | Graphics & Text | Print | Product List | Glossary On
Versions: 1 2 3 4 5 6 7 8 9 10 11 12 13 14 15 16 17 18 19 20 21 22 23 24 25 26 27 28 29 30 31 32 33 34 35 36 37 38 39 40 41 42 43 44 45 46 47 48 49 50
000
ASUS43 KGLD 292308
RWRGLD

GOODLAND FORECAST AREA HOURLY WEATHER ROUNDUP
NATIONAL WEATHER SERVICE GOODLAND KS
500 PM MDT SAT APR 29 2017

...OFFICIAL OBSERVATIONS...

CITY           SKY/WX    TMP DP  RH WIND       PRES   REMARKS
GOODLAND KS    LGT SNOW  35  32  88 N25G33    30.02F FOG
HILL CITY KS   LGT RAIN  40  38  93 N20G29    29.97S FOG
IMPERIAL NEB   CLOUDY    41  26  55 NE17G29   30.10R
MCCOOK NEB     CLOUDY    41  32  70 N23G29    30.03R
AKRON CO       CLOUDY    38  19  46 N22G31    30.11S
BURLINGTON CO  NOT AVBL
LIMON CO       LGT SNOW  30  27  88 N25G33    30.09R FOG     WCI  16
$$

...UNOFFICIAL OBSERVATIONS...

CITY           SKY/WX    TMP DP  RH WIND       PRES   REMARKS
LENORA KS        N/A     39  32  76 MISG        N/A
NORTON KS      LGT RAIN  39  30  70 N22G37    29.99R
SHARON SPRINGS   N/A     33  30  90 NE20G30     N/A
TRENTON NEB      N/A     40  32  73 N13         N/A
KIT CARSON CO    N/A     33  30  88 MISG        N/A
YUMA CO        CLOUDY    37  25  60 NE26      30.10R
$$




USA.gov is the U.S. government's official web portal to all federal, state and local government web resources and services.